Time,TemperatureF,DewpointF,PressureIn,WindDirection,WindDirectionDegrees,WindSpeedMPH,WindSpeedGustMPH,Humidity,HourlyPrecipIn,Conditions,Clouds,dailyrainin,SoftwareType,DateUTC
2013-06-27 00:01:00,70.0,-99.9,-100.00,SSW,210,1.0,2.0,-999,0.00,,,-99.99,,2013-06-27 04:01:00,
2013-06-27 00:11:00,70.0,-99.9,-100.00,SE,145,1.0,4.0,-999,0.00,,,-99.99,,2013-06-27 04:11:00,
2013-06-27 00:33:00,70.0,-99.9,-100.00,SE,140,1.0,2.0,-999,0.00,,,-99.99,,2013-06-27 04:33:00,
2013-06-27 00:42:00,70.0,-99.9,-100.00,West,265,1.0,1.0,-999,0.00,,,-99.99,,2013-06-27 04:42:00,
2013-06-27 01:02:00,70.0,-99.9,-100.00,SSW,210,1.0,6.0,-999,0.00,,,-99.99,,2013-06-27 05:02:00,
2013-06-27 01:12:00,70.0,-99.9,-100.00,South,180,2.0,7.0,-999,0.00,,,-99.99,,2013-06-27 05:12:00,
2013-06-27 01:42:00,70.0,-99.9,-100.00,SE,125,2.0,4.0,-999,0.00,,,-99.99,,2013-06-27 05:42:00,
2013-06-27 01:53:00,70.0,-99.9,-100.00,SSE,160,2.0,4.0,-999,0.00,,,-99.99,,2013-06-27 05:53:00,
2013-06-27 02:02:00,70.0,-99.9,-100.00,SE,135,1.0,2.0,-999,0.00,,,-99.99,,2013-06-27 06:02:00,
2013-06-27 02:12:00,70.0,-99.9,-100.00,SSE,165,2.0,4.0,-999,0.00,,,-99.99,,2013-06-27 06:12:00,
2013-06-27 02:43:00,70.0,-99.9,-100.00,ESE,120,2.0,2.0,-999,0.00,,,-99.99,,2013-06-27 06:43:00,
2013-06-27 03:02:00,70.0,-99.9,-100.00,SE,140,4.0,5.0,-999,0.00,,,-99.99,,2013-06-27 07:02:00,
2013-06-27 03:12:00,70.0,-99.9,-100.00,South,185,1.0,6.0,-999,0.00,,,-99.99,,2013-06-27 07:12:00,
2013-06-27 03:34:00,69.0,-99.9,-100.00,SW,235,1.0,4.0,-999,0.00,,,-99.99,,2013-06-27 07:34:00,
2013-06-27 03:43:00,70.0,-99.9,-100.00,SSW,200,2.0,6.0,-999,0.00,,,-99.99,,2013-06-27 07:43:00,
2013-06-27 03:52:00,70.0,-99.9,-100.00,SW,220,1.0,4.0,-999,0.00,,,-99.99,,2013-06-27 07:52:00,
2013-06-27 04:34:00,69.0,-99.9,-100.00,SW,220,1.0,2.0,-999,0.00,,,-99.99,,2013-06-27 08:34:00,
2013-06-27 04:44:00,69.0,-99.9,-100.00,South,190,1.0,2.0,-999,0.00,,,-99.99,,2013-06-27 08:44:00,
2013-06-27 04:52:00,69.0,-99.9,-100.00,SW,220,2.0,4.0,-999,0.00,,,-99.99,,2013-06-27 08:52:00,
2013-06-27 05:02:00,69.0,-99.9,-100.00,SW,235,0.0,2.0,-999,0.00,,,-99.99,,2013-06-27 09:02:00,
2013-06-27 05:22:00,69.0,-99.9,-100.00,WSW,245,1.0,1.0,-999,0.00,,,-99.99,,2013-06-27 09:22:00,
2013-06-27 05:53:00,68.0,-99.9,-100.00,WNW,285,1.0,2.0,-999,0.00,,,-99.99,,2013-06-27 09:53:00,
2013-06-27 06:44:00,69.0,-99.9,-100.00,SW,235,1.0,3.0,-999,0.00,,,-99.99,,2013-06-27 10:44:00,
2013-06-27 07:12:00,69.0,-99.9,-100.00,West,260,1.0,2.0,-999,0.00,,,-99.99,,2013-06-27 11:12:00,
2013-06-27 07:22:00,68.0,-99.9,-100.00,West,265,1.0,2.0,-999,0.00,,,-99.99,,2013-06-27 11:22:00,
2013-06-27 07:33:00,69.0,-99.9,-100.00,West,265,1.0,2.0,-999,0.00,,,-99.99,,2013-06-27 11:33:00,
2013-06-27 07:43:00,68.0,-99.9,-100.00,West,280,1.0,3.0,-999,0.00,,,-99.99,,2013-06-27 11:43:00,
2013-06-27 08:42:00,71.0,-99.9,-100.00,WSW,245,4.0,7.0,-999,0.00,,,-99.99,,2013-06-27 12:42:00,
2013-06-27 09:01:00,71.0,-99.9,-100.00,WSW,245,7.0,9.0,-999,0.00,,,-99.99,,2013-06-27 13:01:00,
2013-06-27 09:11:00,71.0,-99.9,-100.00,WSW,240,5.0,8.0,-999,0.00,,,-99.99,,2013-06-27 13:11:00,
2013-06-27 09:22:00,71.0,-99.9,-100.00,WSW,245,6.0,7.0,-999,0.00,,,-99.99,,2013-06-27 13:22:00,
2013-06-27 10:22:00,73.0,-99.9,-100.00,WSW,250,6.0,8.0,-999,0.00,,,-99.99,,2013-06-27 14:22:00,
2013-06-27 10:33:00,74.0,74.0,-100.00,WSW,255,3.0,7.0,97,0.00,,,-99.99,,2013-06-27 14:33:00,
2013-06-27 10:52:00,75.0,73.0,-100.00,West,270,6.0,7.0,92,0.00,,,-99.99,,2013-06-27 14:52:00,
2013-06-27 11:01:00,75.0,73.0,-100.00,WSW,255,6.0,10.0,93,0.00,,,-99.99,,2013-06-27 15:01:00,
2013-06-27 11:22:00,76.0,72.0,-100.00,WSW,245,4.0,9.0,89,0.00,,,-99.99,,2013-06-27 15:22:00,
2013-06-27 11:33:00,77.0,72.0,-100.00,WSW,255,7.0,11.0,86,0.00,,,-99.99,,2013-06-27 15:33:00,
2013-06-27 11:42:00,75.0,72.0,-100.00,WSW,255,7.0,12.0,91,0.00,,,-99.99,,2013-06-27 15:42:00,
2013-06-27 12:02:00,75.0,72.0,-100.00,WSW,245,9.0,12.0,91,0.00,,,-99.99,,2013-06-27 16:02:00,
2013-06-27 12:43:00,76.0,71.0,-100.00,WSW,255,8.0,10.0,84,0.00,,,-99.99,,2013-06-27 16:43:00,
2013-06-27 13:02:00,77.0,71.0,-100.00,WSW,250,6.0,11.0,80,0.00,,,-99.99,,2013-06-27 17:02:00,
2013-06-27 13:11:00,77.0,71.0,-100.00,WSW,250,6.0,10.0,81,0.00,,,-99.99,,2013-06-27 17:11:00,
2013-06-27 13:22:00,78.0,73.0,-100.00,West,265,6.0,8.0,83,0.00,,,-99.99,,2013-06-27 17:22:00,
2013-06-27 13:33:00,79.0,73.0,-100.00,West,260,9.0,12.0,81,0.00,,,-99.99,,2013-06-27 17:33:00,
2013-06-27 13:43:00,79.0,72.0,-100.00,West,270,8.0,12.0,80,0.00,,,-99.99,,2013-06-27 17:43:00,
2013-06-27 13:53:00,78.0,72.0,-100.00,WSW,245,6.0,14.0,83,0.00,,,-99.99,,2013-06-27 17:53:00,
2013-06-27 14:01:00,78.0,72.0,-100.00,WSW,245,6.0,14.0,83,0.00,,,-99.99,,2013-06-27 18:01:00,
2013-06-27 14:44:00,82.0,73.0,-100.00,West,270,7.0,12.0,73,0.00,,,-99.99,,2013-06-27 18:44:00,
2013-06-27 15:11:00,82.0,72.0,-100.00,West,265,8.0,11.0,72,0.00,,,-99.99,,2013-06-27 19:11:00,
2013-06-27 16:02:00,83.0,72.0,-100.00,WSW,245,7.0,14.0,68,0.00,,,-99.99,,2013-06-27 20:02:00,
2013-06-27 16:54:00,84.0,71.0,-100.00,SW,235,10.0,16.0,64,0.00,,,-99.99,,2013-06-27 20:54:00,
2013-06-27 17:14:00,84.0,71.0,-100.00,WSW,245,10.0,17.0,64,0.00,,,-99.99,,2013-06-27 21:14:00,
2013-06-27 18:06:00,84.0,70.0,-100.00,WSW,245,13.0,21.0,63,0.00,,,-99.99,,2013-06-27 22:06:00,
2013-06-27 19:05:00,82.0,71.0,-100.00,WSW,245,11.0,16.0,69,0.00,,,-99.99,,2013-06-27 23:05:00,
2013-06-27 19:15:00,81.0,71.0,-100.00,WSW,250,10.0,16.0,70,0.00,,,-99.99,,2013-06-27 23:15:00,
2013-06-27 19:35:00,81.0,71.0,-100.00,WSW,255,9.0,14.0,72,0.00,,,-99.99,,2013-06-27 23:35:00,
2013-06-27 19:45:00,80.0,72.0,-100.00,West,260,10.0,13.0,75,0.00,,,-99.99,,2013-06-27 23:45:00,
2013-06-27 19:55:00,79.0,72.0,-100.00,West,260,7.0,11.0,77,0.00,,,-99.99,,2013-06-27 23:55:00,
2013-06-27 20:07:00,79.0,72.0,-100.00,West,260,6.0,9.0,79,0.00,,,-99.99,,2013-06-28 00:07:00,
2013-06-27 20:14:00,78.0,73.0,-100.00,West,260,5.0,9.0,81,0.00,,,-99.99,,2013-06-28 00:14:00,
2013-06-27 20:35:00,78.0,72.0,-100.00,West,265,5.0,9.0,81,0.00,,,-99.99,,2013-06-28 00:35:00,
2013-06-27 20:45:00,78.0,71.0,-100.00,West,270,4.0,8.0,79,0.00,,,-99.99,,2013-06-28 00:45:00,
2013-06-27 20:54:00,78.0,72.0,-100.00,WSW,255,3.0,6.0,80,0.00,,,-99.99,,2013-06-28 00:54:00,
2013-06-27 21:08:00,78.0,72.0,-100.00,WSW,255,3.0,6.0,80,0.00,,,-99.99,,2013-06-28 01:08:00,
2013-06-27 21:14:00,77.0,72.0,-100.00,West,275,1.0,3.0,84,0.00,,,-99.99,,2013-06-28 01:14:00,
2013-06-27 22:49:00,75.0,73.0,-100.00,South,190,6.0,7.0,94,0.00,,,-99.99,,2013-06-28 02:49:00,
2013-06-27 22:54:00,75.0,72.0,-100.00,SW,220,4.0,12.0,90,0.00,,,-99.99,,2013-06-28 02:54:00,